Location: Asheville, NC
(35.6000°N, 82.5500°W)
Time: 17:03:04
(UTC-05:00)

XW-2B - Pass Details

Date: 07 January 2018
Orbit: 511 x 531 km, 97.5° (Epoch: 21 January)

Event Time Altitude Azimuth Distance (km) Brightness Sun altitude
Rises 07:00:14 0° 2° (N) 2,653 ? -8.2°
Reaches altitude 10° 07:02:26 10° 355° (N) 1,757 ? -7.8°
Maximum altitude 07:05:58 39° 286° (WNW) 791 ? -7.2°
Drops below altitude 10° 07:09:28 10° 217° (SW) 1,734 ? -6.5°
Sets 07:11:38 0° 209° (SSW) 2,613 ? -6.1°
